ORBCOMM FM117 [+] (41188 NORAD) Tracking and Keplerian Element Data

This shows tracking and keplerian element data for the satellite.

Feedback or suggestion? Click here.




ElementValue
Catalog41188
NameORBCOMM FM117 [+]
Epoch Orbit14874
Epoch Day266.62753475
Epoch Year2018
RAAN148.1923
Inclination47.0004
Eccentricity0.0002421
Argument of Perigee257.0064
Mean Anonmoly103.055
Mean Motion14.54733502
Decay Rate1E-08
L11 41188U 15081K 18266.62753475 .00000001 00000-0 38451-4 0 9995
L22 41188 47.0004 148.1923 0002421 257.0064 103.0550 14.54733502148742

Live tracking and technical data element details for ORBCOMM FM117 [+] (NORAD 41188). ORBCOMM FM117 [+] can be tracked NOW for your location showing map with azimuth and elevation plus other details from your city location.

Track the satellite on the map from your city or location and see movement details for azimuth, elevation, latitude, longitude, range, height, and movement on the map or in text.







IsCatalogInMostPopularTable: catalog: 41188, numindb: 100
Update: records affected: 1



GetName: 41188 ORBCOMM FM117 [+]

Hit Count: updated at: Tue, 25 Sep 2018 14:32:39 GMT